Fort Lewis, WA

10:07 AM PDT on April 26, 2017 (GMT -0700)
Gray Army Air Field

Weather History for KGRF - November, 2013

Change the Weather History Date:

Sunday, November 3, 2013

  Actual Average Record
Temperature  
Mean Temperature 42 °F -  
Max Temperature 52 °F 53 °F 69 °F (2000)
Min Temperature 31 °F 36 °F 23 °F (2002)
Degree Days  
Heating Degree Days 23    
Moisture  
Dew Point 37 °F    
Average Humidity 79    
Maximum Humidity 99    
Minimum Humidity 54    
Precipitation  
Precipitation 0.00 in - - ()
Sea Level Pressure  
Sea Level Pressure 30.05 in    
Wind  
Wind Speed 8 mph (South)    
Max Wind Speed 16 mph    
Max Gust Speed 20 mph    
Visibility 10 miles    
Events      
Averages and records for this station are not official NWS values.
T = Trace of Precipitation, MM = Missing Value Source: NWS Daily Summary

Daily Weather History Graph

Daily Weather History Graph

Search for Another Location

Airport or City:

Trip Planner

Search our weather history database for the weather conditions in past years. The results will help you decide how hot, cold, wet, or windy it might be!

Date:

Astronomy

Nov. 03, 2013 Rise Set
Actual Time 6:56 AM PST 4:50 PM PST
Civil Twilight 6:24 AM PST 5:22 PM PST
Nautical Twilight 5:48 AM PST 5:58 PM PST
Astronomical Twilight 5:12 AM PST 6:34 PM PST
Moon 7:08 AM PST (11/3) 5:07 PM PST (11/3)
Length of Visible Light 10h 57m
Length of Day
9h 53m
New Moon, 0% of the Moon is Illuminated
Nov 3
New Moon
Nov 9
First Quarter
Nov 17
Full
Nov 25
Last Quarter
Dec 2
New

Hourly Weather History & Observations

Time (PST) Temp. Windchill Dew Point Humidity Pressure Visibility Wind Dir Wind Speed Gust Speed Precip Events Conditions
12:58 AM 43.3 °F 38.6 °F 39.4 °F 86% 29.95 in 10.0 mi South 8.1 mph - N/A   Partly Cloudy
1:58 AM 40.1 °F 35.3 °F 38.7 °F 95% 29.97 in 10.0 mi SSE 6.9 mph - N/A   Clear
1:58 AM 39.7 °F 35.6 °F 38.8 °F 97% 29.98 in 10.0 mi SE 5.8 mph - N/A   Clear
2:58 AM 37.8 °F 31.3 °F 37.6 °F 99% 29.99 in 10.0 mi SSE 9.2 mph - N/A   Clear
3:58 AM 35.8 °F 28.8 °F 35.6 °F 99% 30.00 in 10.0 mi SSE 9.2 mph - N/A   Partly Cloudy
8:58 AM 44.8 °F 41.6 °F 41.4 °F 88% 30.06 in 10.0 mi SSE 5.8 mph - N/A   Clear
9:28 AM 46.4 °F 41.5 °F 41.0 °F 81% 30.04 in 10.0 mi South 10.4 mph - N/A   Mostly Cloudy
9:58 AM 48.6 °F - 39.7 °F 72% 30.06 in 10.0 mi SSW 10.4 mph - N/A   Overcast
10:53 AM 48.2 °F - 39.2 °F 71% 30.05 in 10.0 mi SSW 10.4 mph - N/A   Overcast
10:58 AM 48.6 °F - 38.7 °F 69% 30.07 in 10.0 mi SSW 5.8 mph - N/A   Overcast
11:58 AM 48.7 °F - 36.5 °F 63% 30.06 in 10.0 mi WSW 10.4 mph - N/A   Scattered Clouds
12:25 PM 51.8 °F - 35.6 °F 54% 30.04 in 10.0 mi SSW 13.8 mph - N/A   Overcast
12:58 PM 51.4 °F - 36.0 °F 56% 30.06 in 10.0 mi WSW 16.1 mph 19.6 mph N/A   Scattered Clouds
1:58 PM 51.1 °F - 37.2 °F 59% 30.07 in 10.0 mi South 10.4 mph - N/A   Clear
2:58 PM 48.4 °F - 37.0 °F 65% 30.07 in 10.0 mi SW 13.8 mph - N/A   Scattered Clouds
3:58 PM 46.4 °F 42.4 °F 36.5 °F 68% 30.07 in 10.0 mi South 8.1 mph - N/A   Clear
4:58 PM 45.0 °F 41.8 °F 36.3 °F 72% 30.07 in 10.0 mi South 5.8 mph - N/A   Clear
5:58 PM 45.5 °F 41.3 °F 35.1 °F 67% 30.08 in 10.0 mi SW 8.1 mph - N/A   Scattered Clouds
6:58 PM 44.4 °F 40.0 °F 35.1 °F 70% 30.09 in 10.0 mi SW 8.1 mph - N/A   Clear
7:58 PM 35.6 °F 31.7 °F 34.5 °F 96% 30.10 in 10.0 mi SE 4.6 mph - N/A   Clear
8:58 PM 34.7 °F 29.6 °F 34.3 °F 99% 30.11 in 10.0 mi SE 5.8 mph - N/A   Clear
9:58 PM 33.1 °F 28.7 °F 32.9 °F 99% 30.12 in 10.0 mi SE 4.6 mph - N/A   Clear
10:58 PM 31.5 °F 28.1 °F 31.3 °F 99% 30.12 in 10.0 mi SE 3.5 mph - N/A   Partly Cloudy